This demonstration page uses our WeatherBlox Daily Observations layout. Learn more.

Left ArrowRight Arrow

Hourly Observations for May 21, 2017

Temp ( °F °C ) Dew Point ( °F °C ) Humidity (%) Winds ( mph kmh ) Pressure ( in mb ) Visibility ( mi km ) Precip ( " mm )
12:15 am 00:15 Cloudy 39 4 36 2.1 88 88 WNW 5 7 30.12 1020 10 16 N/A
12:35 am 00:35 Partly Cloudy 38 3.3 35 1.9 91 91 N N/A 30.12 1020 10 16 N/A
12:55 am 00:55 Clear 38 3.1 35 1.6 90 90 W 6 9 30.15 1021 10 16 N/A
1:15 am 01:15 Clear 38 3.6 36 2.1 90 90 W 5 7 30.12 1020 10 16 N/A
1:35 am 01:35 Clear 38 3.4 35 1.8 89 89 W 3 6 30.12 1020 10 16 N/A
1:55 am 01:55 Clear 37 2.6 34 1.2 91 91 W 5 7 30.15 1021 10 16 N/A
2:15 am 02:15 Clear 36 2.4 34 1.3 93 93 WSW 5 7 30.15 1021 10 16 N/A
2:35 am 02:35 Clear 37 3 35 1.7 91 91 SW 3 6 30.15 1021 10 16 N/A
2:55 am 02:55 Clear 37 2.8 35 1.7 93 93 WSW 5 7 30.15 1021 10 16 N/A
3:15 am 03:15 Clear 37 2.5 35 1.5 93 93 SW 5 7 30.15 1021 10 16 N/A
3:35 am 03:35 Clear 37 2.5 35 1.5 93 93 W 6 9 30.15 1021 10 16 N/A
3:55 am 03:55 Clear 37 2.8 35 1.7 93 93 W 9 15 30.15 1021 10 16 N/A
4:15 am 04:15 Clear 37 2.9 35 1.7 92 92 W 9 15 30.15 1021 10 16 N/A
4:35 am 04:35 Clear 38 3.2 36 2 92 92 NW 7 11 30.15 1021 10 16 N/A
4:55 am 04:55 Clear 37 3 35 1.7 91 91 W 8 13 30.15 1021 10 16 N/A
5:15 am 05:15 Clear 37 3 35 1.7 91 91 W 6 9 30.15 1021 10 16 N/A
5:35 am 05:35 Clear 36 2.4 35 1.4 93 93 WNW 5 7 30.15 1021 10 16 N/A
5:55 am 05:55 Clear 38 3.2 36 2.1 93 93 WNW 6 9 30.15 1021 10 16 N/A
6:15 am 06:15 Clear 37 3 35 1.7 91 91 WNW 6 9 30.15 1021 10 16 N/A
6:35 am 06:35 Sunny 38 3.3 36 2 91 91 W 6 9 30.18 1022 10 16 N/A
6:55 am 06:55 Sunny 38 3.5 36 2.1 91 91 WNW 5 7 30.18 1022 10 16 N/A
7:15 am 07:15 Sunny 40 4.2 37 2.6 89 89 WNW 6 9 30.15 1021 10 16 N/A
7:35 am 07:35 Sunny 40 4.6 37 2.9 89 89 WNW 6 9 30.15 1021 10 16 N/A
7:55 am 07:55 Sunny 43 5.9 39 3.7 86 86 WNW 7 11 30.15 1021 10 16 N/A
8:15 am 08:15 Sunny 45 7.1 40 4.5 84 84 W 5 7 30.15 1021 10 16 N/A
8:35 am 08:35 Sunny 47 8.6 41 4.8 77 77 WNW 9 15 30.15 1021 10 16 N/A
8:55 am 08:55 Sunny 50 9.8 41 4.8 71 71 W 9 15 30.15 1021 10 16 N/A
9:15 am 09:15 Sunny 51 10.8 42 5.3 69 69 WNW 8 13 30.12 1020 10 16 N/A
9:35 am 09:35 Sunny 53 11.5 41 5.2 66 66 WNW 8 13 30.12 1020 10 16 N/A
9:55 am 09:55 Sunny 55 12.8 42 5.4 61 61 WNW 9 15 30.12 1020 10 16 N/A
10:15 am 10:15 Sunny 57 13.9 42 5.3 56 56 W 10 17 30.09 1019 10 16 N/A
10:35 am 10:35 Sunny 58 14.5 41 5 53 53 W 13 20 30.09 1019 10 16 N/A
10:55 am 10:55 Sunny 59 15.1 41 4.8 50 50 W 9 15 30.09 1019 10 16 N/A
11:15 am 11:15 Sunny 60 15.6 38 3.5 45 45 W 10 17 30.09 1019 10 16 N/A
11:35 am 11:35 Sunny 61 16.1 38 3.4 43 43 WNW 9 15 30.09 1019 10 16 N/A
11:55 am 11:55 Sunny 62 16.6 39 3.7 42 42 WNW 8 13 30.09 1019 10 16 N/A
12:15 pm 12:15 Sunny 63 17 38 3.4 41 41 WNW 8 13 30.09 1019 10 16 N/A
12:35 pm 12:35 Sunny 63 17.2 38 3.5 40 40 WNW 9 15 30.06 1018 10 16 N/A
12:55 pm 12:55 Sunny 63 17.4 38 3.4 39 39 N 9 15 30.06 1018 10 16 N/A
1:15 pm 13:15 Sunny 65 18.2 39 3.7 38 38 WNW 8 13 30.06 1018 10 16 N/A
1:35 pm 13:35 Sunny 66 18.7 39 4 38 38 NNW 7 11 30.06 1018 10 16 N/A
1:55 pm 13:55 Sunny 66 18.8 38 3.2 36 36 WNW 12 19 30.06 1018 10 16 N/A
2:15 pm 14:15 Sunny 66 19 38 3.1 35 35 WNW 7 11 30.06 1018 10 16 N/A
2:35 pm 14:35 Sunny 67 19.3 37 3 34 34 WNW 13 20 30.06 1018 10 16 N/A
2:55 pm 14:55 Sunny 67 19.5 39 3.9 36 36 WNW 10 17 30.06 1018 10 16 N/A
3:15 pm 15:15 Sunny 68 19.8 37 2.8 33 33 WNW 8 13 30.03 1017 10 16 N/A
3:35 pm 15:35 Sunny 67 19.6 36 2.2 32 32 WNW 9 15 30.03 1017 10 16 N/A
3:55 pm 15:55 Sunny 68 20 37 2.5 31 31 WNW 6 9 30.03 1017 10 16 N/A
4:15 pm 16:15 Sunny 69 20.5 39 3.8 33 33 W 7 11 30.00 1016 10 16 N/A
4:35 pm 16:35 Sunny 68 20 38 3.1 33 33 NNW 3 6 30.03 1017 10 16 N/A
4:55 pm 16:55 Sunny 69 20.3 38 3.1 32 32 NW 8 13 30.03 1017 10 16 N/A
5:15 pm 17:15 Sunny 68 20.1 37 2.6 31 31 NW 7 11 30.03 1017 10 16 N/A
5:35 pm 17:35 Sunny 69 20.4 37 2.5 31 31 WNW 6 9 30.00 1016 10 16 N/A
5:55 pm 17:55 Sunny 69 20.3 38 3.1 32 32 N N/A 30.03 1017 10 16 N/A
6:15 pm 18:15 Sunny 69 20.4 35 1.8 29 29 NW 7 11 29.97 1015 10 16 N/A
6:35 pm 18:35 Sunny 69 20.4 37 2.7 31 31 NW 7 11 29.97 1015 10 16 N/A
6:55 pm 18:55 Sunny 69 20.4 37 2.6 31 31 NW 7 11 29.97 1015 10 16 N/A
7:15 pm 19:15 Sunny 68 20.1 37 2.9 32 32 WNW 7 11 29.97 1015 10 16 N/A
7:35 pm 19:35 Sunny 68 20 38 3.1 33 33 NW 6 9 30.00 1016 10 16 N/A
7:55 pm 19:55 Sunny 67 19.5 39 3.8 36 36 N N/A 30.00 1016 10 16 N/A
8:15 pm 20:15 Sunny 67 19.3 38 3.5 35 35 N N/A 30.00 1016 10 16 N/A
8:35 pm 20:35 Sunny 66 18.9 38 3.6 36 36 N N/A 30.00 1016 10 16 N/A
8:55 pm 20:55 Clear 64 18 40 4.2 40 40 N N/A 30.00 1016 10 16 N/A
9:15 pm 21:15 Clear 62 16.5 42 5.8 49 49 S 3 6 30.06 1018 10 16 N/A
9:35 pm 21:35 Clear 61 15.9 43 6.1 52 52 S 3 6 30.06 1018 10 16 N/A
9:55 pm 21:55 Clear 58 14.7 44 6.8 59 59 S 3 6 30.06 1018 10 16 N/A
10:15 pm 22:15 Clear 58 14.3 44 6.7 61 61 S 3 6 30.06 1018 10 16 N/A
10:35 pm 22:35 Clear 57 14 44 6.4 60 60 S 6 9 30.06 1018 10 16 N/A
10:55 pm 22:55 Clear 56 13.6 44 6.4 62 62 N N/A 30.06 1018 10 16 N/A
11:15 pm 23:15 Partly Cloudy 57 13.9 43 6.2 60 60 S 3 6 30.06 1018 10 16 N/A
11:35 pm 23:35 Cloudy 57 13.8 44 6.5 62 62 S 3 6 30.06 1018 10 16 N/A
11:55 pm 23:55 Cloudy 58 14.7 43 5.9 56 56 SSW 8 13 30.06 1018 10 16 N/A

Powered by AerisWeather